DW4129 Weather Reports


Display with metric or nautical units.
time (UTC)temp
F
wind
direction
speed
MPH
gust
MPH
rain 1hr
in
rain 24hr
in
rain mn
in
humidity
%
barometer
mb
20260502164053 56 49 2.0 8.0 0.00 0.00 0.00 62 1013.2
20260502163558 56 30 3.0 8.0 0.00 0.00 0.00 59 1013.3
20260502163108 56 25 3.0 7.0 0.00 0.00 0.00 61 1013.4
20260502162552 56 115 1.0 8.0 0.00 0.00 0.00 62 1013.8
20260502162055 56 74 4.0 8.0 0.00 0.00 0.00 61 1014.0
20260502161554 56 88 3.0 5.0 0.00 0.00 0.00 62 1014.2
20260502161051 56 9 1.0 4.0 0.00 0.00 0.00 66 1014.3
20260502160552 56 59 1.0 4.0 0.00 0.00 0.00 63 1014.4
20260502152052 55 44 4.0 10.0 0.00 0.00 0.00 61 1013.7
20260502151558 55 43 3.0 10.0 0.00 0.00 0.00 63 1013.5
20260502151051 54 352 2.0 8.0 0.00 0.00 0.00 62 1013.8
20260502150551 55 76 2.0 8.0 0.00 0.00 0.00 63 1013.8
20260502130551 53 105 2.0 5.0 0.00 0.00 0.00 68 1013.1
20260502130107 53 85 2.0 4.0 0.00 0.00 0.00 69 1013.2
20260502123553 53 93 2.0 5.0 0.00 0.00 0.00 69 1013.2
20260502123102 53 94 2.0 5.0 0.00 0.00 0.00 69 1013.4
20260502122554 53 57 1.0 6.0 0.00 0.00 0.00 70 1013.3
20260502122054 52 276 2.0 6.0 0.00 0.00 0.00 71 1013.3
20260502121559 52 56 1.0 3.0 0.00 0.00 0.00 74 1013.3
20260502121054 52 360 1.0 4.0 0.00 0.00 0.00 74 1013.0
20260502120552 52 11 1.0 4.0 0.00 0.00 0.00 73 1013.1
20260502115556 52 30 1.0 3.0 0.00 0.00 0.00 75 1013.1
20260502115052 52 0 1.0 3.0 0.00 0.00 0.00 76 1013.1
20260502114556 52 54 0.0 4.0 0.00 0.00 0.00 77 1013.0
20260502114052 52 61 1.0 4.0 0.00 0.00 0.00 75 1013.0
20260502113559 52 109 1.0 3.0 0.00 0.00 0.00 77 1012.9
20260502113057 52 130 1.0 3.0 0.00 0.00 0.00 78 1013.1
20260502112551 52 0 0.0 3.0 0.00 0.00 0.00 78 1013.1
20260502112054 51 104 1.0 3.0 0.00 0.00 0.00 79 1012.9
20260502111554 51 169 0.0 2.0 0.00 0.00 0.00 79 1012.9
20260502111056 51 27 1.0 2.0 0.00 0.00 0.00 80 1012.8
20260502110553 51 91 0.0 2.0 0.00 0.00 0.00 80 1012.9
20260502110053 51 289 0.0 2.0 0.00 0.00 0.00 82 1013.1
20260502105553 51 244 0.0 3.0 0.00 0.00 0.00 83 1013.1
20260502105055 51 0 0.0 3.0 0.00 0.00 0.00 82 1013.2
20260502104555 51 69 1.0 1.0 0.00 0.00 0.00 80 1013.1
20260502104052 50 88 0.0 0.0 0.00 0.00 0.00 84 1013.2
20260502103554 50 0 0.0 1.0 0.00 0.00 0.00 84 1013.3
20260502103055 50 0 0.0 2.0 0.00 0.00 0.00 84 1013.3
20260502102555 51 238 0.0 2.0 0.00 0.00 0.00 83 1013.4
20260502102055 51 238 0.0 2.0 0.00 0.00 0.00 84 1013.3
20260502101602 51 238 1.0 2.0 0.00 0.00 0.00 85 1013.5
20260502101057 51 238 0.0 2.0 0.00 0.00 0.00 85 1013.5
20260502100555 51 211 0.0 2.0 0.00 0.00 0.00 84 1013.4
20260502091056 50 209 0.0 2.0 0.00 0.00 0.00 90 1012.9
20260502090556 50 0 0.0 2.0 0.00 0.00 0.00 90 1012.9
20260502071056 49 0 0.0 1.0 0.00 0.00 0.00 91 1012.0
20260502070557 49 0 0.0 2.0 0.00 0.00 0.00 90 1012.0
20260502070101 49 0 0.0 2.0 0.00 0.00 0.00 90 1012.0
20260502065556 49 135 0.0 2.0 0.00 0.00 0.00 90 1012.2
20260502065056 49 135 0.0 2.0 0.00 0.00 0.00 90 1012.3
20260502064557 49 0 0.0 2.0 0.00 0.00 0.00 90 1012.2
20260502064057 49 0 0.0 3.0 0.00 0.00 0.00 90 1012.4
20260502063559 49 135 0.0 3.0 0.00 0.00 0.00 91 1012.5
20260502063058 49 150 1.0 3.0 0.00 0.00 0.00 91 1012.5
20260502062555 49 338 0.0 2.0 0.00 0.00 0.00 91 1012.7
20260502062055 49 336 0.0 1.0 0.00 0.00 0.00 91 1012.6
20260502061553 49 0 0.0 0.0 0.00 0.00 0.00 91 1012.5
20260502061054 49 0 0.0 2.0 0.00 0.00 0.00 91 1012.5
20260502060554 49 0 0.0 2.0 0.00 0.00 0.00 91 1012.4
20260502060100 49 336 1.0 1.0 0.00 0.00 0.00 91 1012.4
20260502055558 49 0 0.0 0.0 0.00 0.00 0.00 91 1012.1
20260502055054 49 0 0.0 0.0 0.00 0.00 0.00 91 1012.1
20260502054557 49 0 0.0 0.0 0.00 0.00 0.00 90 1012.1
20260502054054 49 0 0.0 0.0 0.00 0.00 0.00 90 1012.2
20260502053555 49 0 0.0 0.0 0.00 0.00 0.00 90 1012.2
20260502053053 49 0 0.0 0.0 0.00 0.00 0.00 90 1012.3
20260502052557 49 0 0.0 0.0 0.00 0.00 0.00 90 1012.3
20260502052055 49 0 0.0 2.0 0.00 0.00 0.00 90 1012.4
20260502051556 49 0 0.0 2.0 0.00 0.00 0.00 90 1012.5
20260502051054 49 192 0.0 1.0 0.00 0.00 0.00 90 1012.5
20260502050557 49 0 0.0 2.0 0.00 0.00 0.00 90 1012.4
20260502050054 49 0 0.0 2.0 0.00 0.00 0.00 90 1012.5
20260502045559 49 0 0.0 2.0 0.00 0.00 0.00 90 1012.6
20260502045055 49 0 0.0 2.0 0.00 0.00 0.00 90 1012.7
20260502044558 49 0 0.0 2.0 0.00 0.00 0.00 90 1012.8
20260502044056 49 192 0.0 0.0 0.00 0.00 0.00 89 1012.7
20260502043555 49 0 0.0 0.0 0.00 0.00 0.00 89 1012.8
20260502043102 49 0 0.0 0.0 0.00 0.00 0.00 89 1012.7
20260502042555 49 0 0.0 0.0 0.00 0.00 0.00 89 1012.7
20260502042054 49 0 0.0 2.0 0.00 0.00 0.00 89 1012.7
20260502041553 49 0 0.0 2.0 0.00 0.00 0.00 88 1012.8
20260502041055 50 192 0.0 2.0 0.00 0.00 0.00 88 1012.7
20260502040558 50 192 0.0 2.0 0.00 0.00 0.00 88 1012.8
20260502040054 49 151 0.0 0.0 0.00 0.00 0.00 88 1012.9
20260502035555 50 0 0.0 2.0 0.00 0.00 0.00 87 1012.9
20260502035055 50 0 0.0 2.0 0.00 0.00 0.00 87 1012.8
20260502034552 50 0 0.0 2.0 0.00 0.00 0.00 86 1013.0
20260502034055 50 151 0.0 2.0 0.00 0.00 0.00 86 1013.0
20260502033554 50 0 0.0 2.0 0.00 0.00 0.00 86 1013.0
20260502033052 50 176 0.0 2.0 0.00 0.00 0.00 85 1013.0
20260502032554 50 144 0.0 2.0 0.00 0.00 0.00 85 1013.0
20260502032054 50 165 0.0 2.0 0.00 0.00 0.00 85 1012.9
20260502031559 51 0 0.0 2.0 0.00 0.00 0.00 84 1012.9
20260502031055 51 240 0.0 2.0 0.00 0.00 0.00 84 1013.0
20260502030554 51 230 0.0 3.0 0.00 0.00 0.00 84 1013.0
20260502030054 51 199 0.0 3.0 0.00 0.00 0.00 84 1013.0
20260502025554 51 223 1.0 3.0 0.00 0.00 0.00 84 1013.1
20260502025055 51 247 0.0 2.0 0.00 0.00 0.00 84 1013.0
20260502024554 51 0 0.0 2.0 0.00 0.00 0.00 84 1013.0
20260502024055 51 216 1.0 2.0 0.00 0.00 0.00 84 1012.9
20260502023555 51 275 1.0 2.0 0.00 0.00 0.00 83 1013.1
20260502023105 51 257 0.0 2.0 0.00 0.00 0.00 83 1013.0
20260502022554 51 305 0.0 2.0 0.00 0.00 0.00 83 1013.0
20260502022056 51 0 0.0 2.0 0.00 0.00 0.00 83 1013.0
20260502021556 51 0 0.0 2.0 0.00 0.00 0.00 83 1013.0
20260502021054 51 0 1.0 2.0 0.00 0.00 0.00 83 1013.1
20260502020554 51 0 0.0 2.0 0.00 0.00 0.00 82 1013.1
20260502020055 51 0 0.0 2.0 0.00 0.00 0.00 82 1013.1
20260502015555 52 0 0.0 2.0 0.00 0.00 0.00 82 1013.1
20260502015055 52 211 0.0 2.0 0.00 0.00 0.00 81 1013.1
20260502014600 52 0 0.0 2.0 0.00 0.00 0.00 81 1013.2
20260502014054 52 200 0.0 2.0 0.00 0.00 0.00 81 1013.0
20260502013554 52 80 0.0 2.0 0.00 0.00 0.00 81 1013.0
20260502013056 52 242 0.0 2.0 0.00 0.00 0.00 81 1012.9
20260502012554 52 205 0.0 3.0 0.00 0.00 0.00 80 1012.9
20260502012054 52 0 0.0 3.0 0.00 0.00 0.00 80 1012.8
20260502011553 52 167 0.0 2.0 0.00 0.00 0.00 80 1012.9
20260502011054 52 299 0.0 2.0 0.00 0.00 0.00 80 1012.9
20260502010554 52 0 0.0 2.0 0.00 0.00 0.00 80 1012.8
20260502010100 52 42 0.0 2.0 0.00 0.00 0.00 80 1012.7
20260502005555 52 155 0.0 2.0 0.00 0.00 0.00 80 1012.5
20260502005055 52 155 0.0 2.0 0.00 0.00 0.00 79 1012.5
20260502004603 53 0 0.0 3.0 0.00 0.00 0.00 79 1012.5
20260502004058 53 158 0.0 3.0 0.00 0.00 0.00 79 1012.6
20260502003556 53 240 0.0 2.0 0.00 0.00 0.00 78 1012.5
20260502003054 53 157 0.0 2.0 0.00 0.00 0.00 77 1012.4
20260502002554 53 112 0.0 2.0 0.00 0.00 0.00 77 1012.3
20260502002058 54 0 0.0 4.0 0.00 0.00 0.00 76 1012.2
20260502001552 54 0 0.0 4.0 0.00 0.00 0.00 76 1012.1
20260502001057 54 192 0.0 2.0 0.00 0.00 0.00 76 1012.0
20260502000554 54 0 0.0 2.0 0.00 0.00 0.00 75 1012.1
20260502000105 55 160 0.0 2.0 0.00 0.00 0.00 74 1012.0
20260501235553 55 74 0.0 4.0 0.00 0.00 0.00 73 1012.0
20260501235054 56 15 1.0 6.0 0.00 0.00 0.00 72 1012.0
20260501234556 56 126 1.0 6.0 0.00 0.00 0.00 71 1012.0
20260501234054 56 278 1.0 4.0 0.00 0.00 0.00 70 1012.0
20260501233552 56 137 1.0 4.0 0.00 0.00 0.00 70 1012.0
20260501233103 57 247 0.0 2.0 0.00 0.00 0.00 69 1012.0
20260501232555 57 294 1.0 5.0 0.00 0.00 0.00 68 1012.0
20260501232054 57 182 1.0 5.0 0.00 0.00 0.00 67 1011.9
20260501231600 58 30 1.0 3.0 0.00 0.00 0.00 66 1011.9
20260501231051 58 214 1.0 6.0 0.00 0.00 0.00 65 1011.8
20260501230551 58 227 1.0 6.0 0.00 0.00 0.00 64 1011.9
20260501230107 59 218 1.0 8.0 0.00 0.00 0.00 64 1012.0
20260501225554 59 161 1.0 8.0 0.00 0.00 0.00 63 1011.9
20260501225055 59 195 1.0 7.0 0.00 0.00 0.00 62 1011.9
20260501224555 60 127 3.0 7.0 0.00 0.00 0.00 62 1011.8
20260501224052 60 82 3.0 7.0 0.00 0.00 0.00 60 1012.0
20260501223553 60 207 2.0 6.0 0.00 0.00 0.00 61 1012.0
20260501223058 61 183 2.0 6.0 0.00 0.00 0.00 60 1012.0
20260501222555 61 194 2.0 7.0 0.00 0.00 0.00 60 1012.0
20260501222052 61 200 2.0 7.0 0.00 0.00 0.00 61 1012.0
20260501221601 61 209 2.0 8.0 0.00 0.00 0.00 61 1012.0
20260501221054 62 132 1.0 9.0 0.00 0.00 0.00 60 1012.0
20260501220551 62 203 2.0 9.0 0.00 0.00 0.00 61 1012.0
20260501220059 62 334 2.0 9.0 0.00 0.00 0.00 62 1012.0
20260501215552 62 244 2.0 9.0 0.00 0.00 0.00 61 1012.0
20260501215055 62 86 3.0 8.0 0.00 0.00 0.00 60 1011.9
20260501214557 63 150 3.0 8.0 0.00 0.00 0.00 60 1012.1
20260501214051 63 254 2.0 7.0 0.00 0.00 0.00 57 1012.1
20260501213554 63 253 3.0 7.0 0.00 0.00 0.00 57 1012.1
20260501213054 63 138 3.0 8.0 0.00 0.00 0.00 55 1012.2
20260501212551 63 190 2.0 8.0 0.00 0.00 0.00 54 1012.1
20260501212055 63 240 3.0 8.0 0.00 0.00 0.00 53 1012.1
20260501211559 64 225 2.0 6.0 0.00 0.00 0.00 53 1012.2
20260501211056 64 173 2.0 6.0 0.00 0.00 0.00 52 1012.3
20260501210551 64 224 3.0 6.0 0.00 0.00 0.00 50 1012.4
20260501210056 64 234 1.0 8.0 0.00 0.00 0.00 53 1012.4
20260501205557 64 157 1.0 8.0 0.00 0.00 0.00 53 1012.5
20260501205056 65 160 2.0 7.0 0.00 0.00 0.00 51 1012.4
20260501204605 65 267 1.0 8.0 0.00 0.00 0.00 53 1012.4
20260501204056 64 78 4.0 8.0 0.00 0.00 0.00 51 1012.5
20260501203556 65 149 1.0 9.0 0.00 0.00 0.00 53 1012.5
20260501203054 65 236 1.0 9.0 0.00 0.00 0.00 50 1012.4
20260501202559 65 296 3.0 9.0 0.00 0.00 0.00 52 1012.4
20260501202056 65 198 2.0 10.0 0.00 0.00 0.00 48 1012.4
20260501201611 65 206 3.0 8.0 0.00 0.00 0.00 49 1012.5
20260501201057 65 144 3.0 6.0 0.00 0.00 0.00 48 1012.5
20260501200557 64 190 2.0 7.0 0.00 0.00 0.00 50 1012.6
20260501200057 64 250 1.0 9.0 0.00 0.00 0.00 50 1012.7
20260501195556 64 84 3.0 9.0 0.00 0.00 0.00 47 1012.7
20260501195056 65 59 2.0 7.0 0.00 0.00 0.00 48 1012.9
20260501194555 65 150 1.0 10.0 0.00 0.00 0.00 49 1012.9
20260501194059 65 217 4.0 10.0 0.00 0.00 0.00 48 1012.9
20260501193556 65 225 2.0 8.0 0.00 0.00 0.00 51 1013.0
20260501193101 65 84 3.0 8.0 0.00 0.00 0.00 49 1013.1
20260501192556 65 213 3.0 12.0 0.00 0.00 0.00 48 1013.1
20260501192056 66 255 1.0 12.0 0.00 0.00 0.00 46 1013.2
20260501191556 65 195 5.0 11.0 0.00 0.00 0.00 49 1013.2
20260501191057 65 29 2.0 7.0 0.00 0.00 0.00 46 1013.3
20260501190557 65 240 2.0 7.0 0.00 0.00 0.00 46 1013.5
20260501190056 65 289 3.0 6.0 0.00 0.00 0.00 47 1013.5
20260501185556 66 215 2.0 8.0 0.00 0.00 0.00 47 1013.6
20260501185056 66 173 3.0 11.0 0.00 0.00 0.00 48 1013.7
20260501184556 65 215 3.0 11.0 0.00 0.00 0.00 48 1013.8
20260501184056 64 96 2.0 8.0 0.00 0.00 0.00 50 1013.9
20260501183558 65 195 2.0 8.0 0.00 0.00 0.00 48 1013.9
20260501183058 64 262 4.0 8.0 0.00 0.00 0.00 46 1013.9
20260501182556 64 240 3.0 8.0 0.00 0.00 0.00 47 1014.1
20260501182056 64 305 2.0 8.0 0.00 0.00 0.00 45 1014.1
20260501181558 63 275 1.0 8.0 0.00 0.00 0.00 47 1014.1
20260501181056 64 101 2.0 8.0 0.00 0.00 0.00 52 1014.1
20260501180556 63 123 3.0 6.0 0.00 0.00 0.00 48 1014.2
20260501180101 63 161 1.0 12.0 0.00 0.00 0.00 47 1014.4
20260501175556 63 92 2.0 12.0 0.00 0.00 0.00 46 1014.6
20260501175056 64 281 4.0 11.0 0.00 0.00 0.00 48 1014.6
20260501174557 63 92 3.0 6.0 0.00 0.00 0.00 50 1014.7
20260501174056 64 223 2.0 4.0 0.00 0.00 0.00 51 1014.7
20260501173556 63 242 0.0 7.0 0.00 0.00 0.00 52 1014.7
20260501173055 62 119 1.0 7.0 0.00 0.00 0.00 53 1014.7
20260501172556 62 259 4.0 7.0 0.00 0.00 0.00 52 1014.7
20260501172057 62 190 2.0 6.0 0.00 0.00 0.00 51 1014.8